SCP
0 0 0 0 0 0 0 0 0 0 0 0 0 0 0 0 0 0 0 0 0 0 1 1 1 1 1 1 0 0 1 1 0 0 0 0 0 0 0 0 0 0 0
0 0 0 0 0 0 0 0 0 0 0 0 0 0 0 0 0 0 0 0 0 0 1 1 1 1 1 1 1 1 1 1 1 0 0 0 0 0 0 0 0 0 0
0 0 0 0 0 0 0 0 0 0 0 0 0 0 0 0 0 0 0 1 1 1 1 1 1 1 1 1 1 1 1 1 1 1 0 0 0 0 0 0 0 0 0
0 0 0 0 0 0 0 0 0 0 0 0 0 0 0 0 0 0 0 1 1 2 2 2 1 1 1 1 1 0 0 0 0 0 0 0 0 0 0 0 0 0 0
0 0 0 0 0 0 0 0 0 0 0 0 0 0 0 0 0 0 0 0 0 1 1 1 0 0 0 0 0 0 0 0 0 0 0 0 0 0 0 0 0 0 0
0 0 0 0 0 0 0 0 0 0 0 0 0 0 0 0 0 0 0 0 0 0 0 0 0 0 0 0 0 0 0 0 0 0 0 0 0 0 0 0 0 0 0
0 0 0 0 0 0 0 0 0 0 0 -0 -0 0 0 0 0 0 0 0 0 0 0 0 0 0 0 0 0 0 0 0 0 0 0 0 0 0 0 0 0 0 0
0 0 0 0 0 0 0 0 0 0 0 0 0 0 0 0 0 0 0 0 0 0 0 0 0 0 0 0 0 0 0 0 0 0 0 0 0 0 0 0 0 0 0
0 0 0 0 0 0 0 0 0 0 0 0 0 0 0 0 0 0 0 0 0 -0 -0 0 0 0 0 0 0 0 0 0 0 0 0 0 0 0 0 0 0 0 0
0 0 0 0 0 0 0 0 0 0 0 0 0 0 0 0 0 0 0 0 0 0 0 0 0 0 0 0 0 0 0 0 0 0 0 0 0 0 0 0 0 0 0
0 0 0 0 0 0 0 0 0 0 0 0 0 0 0 0 0 0 0 0 0 0 0 0 0 0 0 0 0 0 0 0 0 0 0 0 0 0 0 0 0 0 0
0 0 0 0 0 0 0 0 0 0 0 0 0 0 0 0 0 0 0 0 0 0 0 0 0 0 0 0 0 0 0 0 0 0 0 0 0 0 0 0 0 0 0
0 0 0 0 0 0 0 0 0 0 0 0 -0 0 0 0 0 0 0 0 0 0 0 0 0 0 0 0 0 0 0 0 0 0 0 0 0 0 0 0 0 0 0
0 0 0 0 0 0 0 0 0 0 0 0 0 -0 0 0 0 0 0 0 0 0 0 0 0 0 0 0 0 0 0 0 0 0 0 0 0 0 0 0 0 0 0
0 0 0 0 0 0 0 0 0 0 0 -0 0 -0 -0 0 0 0 0 0 0 0 0 0 0 0 0 0 0 0 0 0 0 0 0 0 0 0 0 0 0 0 0
0 0 0 0 0 0 0 0 0 0 -0 -0 -0 -0 -0 0 -0 0 0 0 0 0 0 0 0 0 0 0 0 0 0 0 0 0 0 0 0 0 0 0 0 0 0
0 0 0 0 0 0 0 0 0 0 -0 -0 -0 -0 -0 0 -0 -0 0 0 0 0 0 0 0 0 0 0 0 0 0 0 0 0 0 0 0 0 0 0 0 0 0
0 0 0 0 0 0 0 0 0 0 -0 -0 -0 -0 -0 0 0 0 0 0 0 0 0 0 0 0 0 0 0 0 0 0 0 0 0 0 0 0 0 0 0 0 0
0 0 0 0 0 0 0 0 0 0 0 0 0 0 0 0 0 0 0 0 0 0 0 0 0 0 0 0 0 0 0 0 0 0 0 0 0 0 0 0 0 0 0
0 0 0 0 0 0 0 0 0 0 0 0 0 0 0 0 0 0 0 0 0 0 0 0 0 0 0 0 0 0 0 0 0 0 0 0 0 0 0 0 0 0 0
0 0 0 0 0 0 0 0 0 0 0 0 0 0 0 0 0 0 0 0 0 0 0 0 0 0 0 0 0 0 0 -0 0 0 0 0 0 0 0 0 0 0 0
0 0 0 0 0 0 0 0 0 0 0 0 0 0 0 0 0 0 0 0 0 0 0 0 0 0 0 0 0 0 -0 0 -0 0 0 0 0 0 0 0 0 0 0
0 0 0 0 0 0 0 0 0 0 0 0 0 0 0 0 0 0 0 0 0 0 0 0 0 0 0 0 0 -0 0 -0 0 0 0 0 0 0 0 0 0 0 0
0 0 0 0 0 0 0 0 0 0 0 0 0 0 0 0 0 0 0 0 0 0 0 0 0 0 0 0 0 0 0 0 0 0 0 0 0 0 -0 0 0 0 0
0 0 0 0 0 0 0 0 0 0 0 0 0 0 0 0 0 0 0 0 0 0 0 0 0 0 0 0 0 0 0 0 0 0 0 0 0 0 0 0 0 -0 -0
0 0 0 0 0 0 0 0 0 0 0 0 0 0 0 0 0 0 0 0 0 0 0 0 0 0 0 0 0 0 0 0 0 0 0 0 0 0 0 0 0 -0 -0
Wind_Speed_500mb
41 38 34 26 26 26 26 26 26 28 30 30 30 30 28 27 27 30 31 39 40 41 35 37 38 36 35 31 29 28 28 25 23 23 23 23 22 22 26 34 36 43 47
38 26 23 24 25 25 25 26 25 28 29 28 28 28 22 20 21 23 25 27 36 36 32 33 35 36 33 34 34 33 32 29 26 23 22 23 25 24 23 25 32 36 39
30 23 22 23 23 24 27 26 27 25 22 26 26 18 11 8 10 16 13 18 14 19 27 23 28 28 28 27 29 30 31 30 21 20 22 24 24 24 25 24 24 28 34
26 20 20 22 23 24 25 25 27 21 22 23 26 28 26 20 21 19 13 6 7 3 8 19 20 18 17 13 27 31 21 8 10 11 13 16 17 19 22 25 26 28 27
19 17 18 21 24 24 22 21 25 17 21 23 25 28 30 30 25 24 28 26 22 19 22 22 26 34 35 29 25 21 11 4 2 4 7 10 16 21 23 27 32 32 28
16 16 18 24 26 24 21 20 24 12 16 14 20 23 28 26 27 29 29 29 32 29 32 36 24 18 11 13 23 21 12 9 8 8 9 12 14 16 17 20 23 29 32
15 18 17 22 24 25 22 21 17 23 12 10 6 13 19 26 25 23 25 23 26 27 27 26 23 19 22 22 16 19 18 14 11 10 12 13 14 17 18 19 21 25 28
15 14 17 20 22 22 24 24 22 16 19 20 10 13 10 8 21 23 16 13 13 13 18 19 20 18 14 11 21 20 18 17 15 17 18 20 22 24 25 25 25 25 26
13 15 16 18 22 20 23 26 23 20 17 19 25 15 10 8 12 10 15 14 16 13 8 7 8 12 11 12 11 16 20 17 17 20 24 28 34 33 30 30 29 28 28
14 15 16 16 19 22 24 25 25 24 21 19 16 19 14 14 13 8 8 12 11 11 11 11 15 16 13 13 18 24 23 23 28 35 40 36 31 30 29 28 27 27 26
14 13 13 13 16 16 22 25 26 26 24 22 20 18 15 11 15 10 10 11 8 8 12 14 14 16 18 16 16 24 34 42 45 47 47 44 39 33 32 31 30 29 30
8 10 7 9 10 10 14 17 18 21 21 23 21 23 23 20 20 16 13 12 9 12 11 13 16 16 18 19 21 35 35 40 40 42 42 42 42 39 35 36 34 33 33
6 4 8 8 8 10 8 11 16 14 16 19 20 20 21 21 20 18 16 14 12 12 11 10 17 17 19 20 23 36 31 42 39 38 41 39 38 41 43 42 40 39 38
6 6 3 4 7 6 4 9 11 9 11 12 16 15 16 16 17 17 18 21 21 14 14 12 23 19 24 25 29 39 29 36 45 39 34 40 45 47 47 47 48 49 49
5 7 4 3 8 5 1 5 6 10 10 9 8 14 14 16 15 16 17 18 20 26 25 21 28 23 29 31 34 32 32 37 44 43 45 43 43 45 52 58 60 59 57
10 8 3 3 7 5 2 4 5 7 8 7 9 14 17 18 16 20 20 20 22 24 31 33 31 33 30 38 31 38 36 44 41 47 52 57 62 60 59 60 60 58 59
11 10 5 1 4 3 4 5 5 3 5 8 12 14 17 19 18 19 22 24 29 31 39 42 37 36 41 36 37 37 36 40 38 42 49 59 69 73 63 61 62 64 61
9 7 6 3 2 2 6 6 4 4 6 9 12 15 17 18 22 25 29 31 36 34 37 41 39 40 38 33 40 40 44 41 45 49 61 57 52 54 53 54 44 52 57
10 8 6 6 3 1 5 8 8 9 11 15 17 20 23 27 30 34 37 36 35 36 38 42 42 37 45 44 37 42 41 46 45 50 52 47 40 50 50 39 42 45 46
15 13 9 8 9 8 7 9 11 14 17 21 25 26 28 31 34 40 39 39 42 44 42 42 46 39 47 39 35 40 44 50 55 46 42 39 44 39 42 38 31 33 36
15 14 12 11 10 12 10 14 16 21 26 30 32 35 35 37 46 45 44 41 41 41 46 48 48 45 45 43 42 43 48 56 50 40 40 41 36 35 31 26 23 31 31
15 13 15 14 15 12 24 20 23 30 33 36 37 36 37 36 30 42 38 38 34 35 39 40 43 50 47 41 39 48 51 48 54 35 42 39 31 32 27 25 27 28 34
15 14 15 18 17 18 21 22 28 38 43 40 38 33 30 34 37 30 28 34 39 41 39 36 37 44 44 38 44 51 43 42 41 37 37 41 30 28 29 28 28 28 19
16 14 14 16 16 18 23 27 36 43 41 35 32 24 28 30 29 33 27 37 41 35 34 35 38 39 41 44 37 37 39 35 35 33 33 32 23 29 33 26 27 20 16
14 15 13 15 17 22 28 30 35 37 31 29 23 20 29 19 30 29 38 41 36 30 27 40 40 45 40 35 32 31 27 30 34 34 36 26 23 41 26 19 16 14 36
14 12 13 16 21 27 29 37 41 37 29 23 23 23 25 28 31 39 44 35 30 32 36 30 27 30 28 28 30 33 35 34 38 43 27 40 42 34 28 7 19 28 23
Wind_Direction_500mb
347 345 346 357 359 354 347 345 340 338 335 326 319 308 299 287 279 275 269 272 268 256 250 241 237 236 234 235 236 233 233 239 254 265 269 271 273 272 267 263 258 251 250
346 360 2 7 2 358 359 359 350 346 344 346 339 332 313 300 288 287 281 274 284 259 247 242 233 229 229 231 234 234 238 246 254 257 263 269 272 271 267 266 260 253 254
358 21 12 12 4 2 6 2 3 360 355 5 7 10 7 19 307 286 273 257 283 263 240 232 223 224 225 222 221 224 229 236 242 250 258 262 265 268 270 267 264 260 256
10 21 19 15 14 9 7 12 7 18 27 26 30 35 36 26 28 28 28 355 236 318 172 190 197 196 197 173 145 146 197 214 209 231 251 264 267 275 278 274 271 268 265
19 37 28 17 20 11 12 20 20 39 38 43 44 47 48 43 42 48 50 59 67 79 88 107 131 125 123 96 70 72 70 117 170 268 279 280 282 282 281 278 273 267 271
27 47 21 25 24 25 31 34 32 38 47 40 33 38 47 43 47 39 46 56 52 76 71 69 76 82 66 54 62 63 44 13 347 326 298 290 287 280 271 269 270 269 265
38 45 33 32 35 38 38 33 37 30 6 350 348 14 27 38 32 39 45 43 64 58 62 70 77 60 30 30 50 41 35 31 11 356 349 339 328 317 307 297 285 278 273
49 42 52 41 53 32 39 36 37 34 26 24 344 328 321 8 29 33 20 22 10 50 66 59 59 64 71 31 14 7 10 358 355 350 346 339 332 325 319 314 307 296 287
55 62 54 57 47 48 35 37 36 34 25 22 36 25 317 11 332 13 26 27 37 53 38 32 26 27 2 12 19 348 321 320 317 321 319 318 317 313 312 311 304 300 296
79 71 73 64 63 49 50 38 36 37 50 31 25 22 31 12 339 304 11 3 19 21 30 6 1 347 329 334 332 328 309 304 303 304 305 303 304 302 304 305 303 300 298
93 89 80 65 59 53 45 46 47 50 40 43 33 22 20 15 9 341 321 337 309 334 327 327 328 328 332 332 317 301 301 295 296 295 295 291 291 291 294 294 293 289 292
95 87 71 52 39 32 37 37 43 38 44 42 45 52 49 45 33 30 7 357 332 325 317 327 329 327 323 321 321 308 310 306 301 298 298 293 285 281 281 282 285 281 281
136 99 68 83 35 38 40 39 30 37 42 44 64 52 48 45 38 30 19 7 347 341 339 337 339 334 334 331 320 315 329 316 309 301 295 291 286 281 280 279 280 278 278
166 146 106 62 23 25 23 44 18 42 51 55 57 46 31 26 23 18 13 1 346 342 338 339 332 316 324 322 328 326 323 314 309 310 298 286 283 282 282 280 277 275 277
181 168 163 355 353 355 170 63 29 50 60 76 28 12 13 2 357 358 355 354 351 342 335 335 331 321 316 313 311 320 322 307 313 317 313 304 294 284 277 276 277 277 277
181 180 189 339 350 344 190 129 65 53 60 24 357 346 346 336 340 333 332 332 330 322 317 323 321 319 312 311 312 315 313 325 318 310 311 306 297 288 283 279 277 276 272
179 194 226 287 2 353 182 170 152 71 21 354 344 338 339 336 335 335 329 322 317 312 309 312 315 312 313 307 306 301 309 315 309 303 296 291 288 294 291 281 269 269 270
171 200 215 248 5 93 177 186 199 273 317 323 322 325 332 328 324 322 320 315 312 304 300 305 310 315 312 314 313 307 311 305 310 310 303 300 293 296 293 293 276 267 268
206 204 220 229 245 208 207 236 252 276 288 293 297 303 305 313 312 316 307 309 314 310 305 300 300 305 309 310 309 307 306 312 311 308 312 304 298 293 300 290 276 278 277
217 224 236 233 231 242 255 263 271 280 285 290 290 292 298 299 309 308 312 310 314 313 309 307 306 307 310 312 319 312 312 314 316 315 313 310 313 312 310 300 293 293 289
219 222 240 251 240 248 265 264 277 286 289 292 294 296 298 295 305 309 304 300 309 311 312 306 306 308 311 316 309 312 311 315 316 318 315 312 313 311 312 306 290 282 274
223 232 247 244 251 255 261 271 286 294 292 294 299 302 307 311 317 310 313 314 322 319 312 306 306 310 310 310 308 314 313 315 316 321 318 316 315 311 314 305 299 295 294
225 233 250 243 253 264 271 284 292 296 298 294 297 306 319 313 317 314 313 322 318 318 315 309 315 310 311 312 313 311 311 310 310 316 316 313 318 315 313 307 304 314 296
237 247 258 246 254 268 281 290 294 297 298 294 300 308 314 313 304 319 323 322 316 313 306 306 308 309 307 306 309 307 310 318 316 315 319 310 316 315 319 310 304 302 283
235 243 249 244 260 277 290 299 301 304 299 292 296 301 311 323 309 319 330 323 319 317 320 316 320 316 319 319 320 320 315 311 315 316 328 301 314 319 327 315 300 320 317
239 229 238 260 277 290 297 295 297 303 296 297 301 304 311 322 324 326 328 324 317 319 317 316 317 321 321 323 330 326 318 313 317 313 332 312 320 326 322 306 309 314 312
Wind_Speed_850mb
41 38 34 26 26 26 26 26 26 28 30 30 30 30 28 27 27 30 31 39 40 41 35 37 38 36 35 31 29 28 28 25 23 23 23 23 22 22 26 34 36 43 47
38 26 23 24 25 25 25 26 25 28 29 28 28 28 22 20 21 23 25 27 36 36 32 33 35 36 33 34 34 33 32 29 26 23 22 23 25 24 23 25 32 36 39
30 23 22 23 23 24 27 26 27 25 22 26 26 18 11 8 10 16 13 18 14 19 27 23 28 28 28 27 29 30 31 30 21 20 22 24 24 24 25 24 24 28 34
26 20 20 22 23 24 25 25 27 21 22 23 26 28 26 20 21 19 13 6 7 3 8 19 20 18 17 13 27 31 21 8 10 11 13 16 17 19 22 25 26 28 27
19 17 18 21 24 24 22 21 25 17 21 23 25 28 30 30 25 24 28 26 22 19 22 22 26 34 35 29 25 21 11 4 2 4 7 10 16 21 23 27 32 32 28
16 16 18 24 26 24 21 20 24 12 16 14 20 23 28 26 27 29 29 29 32 29 32 36 24 18 11 13 23 21 12 9 8 8 9 12 14 16 17 20 23 29 32
15 18 17 22 24 25 22 21 17 23 12 10 6 13 19 26 25 23 25 23 26 27 27 26 23 19 22 22 16 19 18 14 11 10 12 13 14 17 18 19 21 25 28
15 14 17 20 22 22 24 24 22 16 19 20 10 13 10 8 21 23 16 13 13 13 18 19 20 18 14 11 21 20 18 17 15 17 18 20 22 24 25 25 25 25 26
13 15 16 18 22 20 23 26 23 20 17 19 25 15 10 8 12 10 15 14 16 13 8 7 8 12 11 12 11 16 20 17 17 20 24 28 34 33 30 30 29 28 28
14 15 16 16 19 22 24 25 25 24 21 19 16 19 14 14 13 8 8 12 11 11 11 11 15 16 13 13 18 24 23 23 28 35 40 36 31 30 29 28 27 27 26
14 13 13 13 16 16 22 25 26 26 24 22 20 18 15 11 15 10 10 11 8 8 12 14 14 16 18 16 16 24 34 42 45 47 47 44 39 33 32 31 30 29 30
8 10 7 9 10 10 14 17 18 21 21 23 21 23 23 20 20 16 13 12 9 12 11 13 16 16 18 19 21 35 35 40 40 42 42 42 42 39 35 36 34 33 33
6 4 8 8 8 10 8 11 16 14 16 19 20 20 21 21 20 18 16 14 12 12 11 10 17 17 19 20 23 36 31 42 39 38 41 39 38 41 43 42 40 39 38
6 6 3 4 7 6 4 9 11 9 11 12 16 15 16 16 17 17 18 21 21 14 14 12 23 19 24 25 29 39 29 36 45 39 34 40 45 47 47 47 48 49 49
5 7 4 3 8 5 1 5 6 10 10 9 8 14 14 16 15 16 17 18 20 26 25 21 28 23 29 31 34 32 32 37 44 43 45 43 43 45 52 58 60 59 57
10 8 3 3 7 5 2 4 5 7 8 7 9 14 17 18 16 20 20 20 22 24 31 33 31 33 30 38 31 38 36 44 41 47 52 57 62 60 59 60 60 58 59
11 10 5 1 4 3 4 5 5 3 5 8 12 14 17 19 18 19 22 24 29 31 39 42 37 36 41 36 37 37 36 40 38 42 49 59 69 73 63 61 62 64 61
9 7 6 3 2 2 6 6 4 4 6 9 12 15 17 18 22 25 29 31 36 34 37 41 39 40 38 33 40 40 44 41 45 49 61 57 52 54 53 54 44 52 57
10 8 6 6 3 1 5 8 8 9 11 15 17 20 23 27 30 34 37 36 35 36 38 42 42 37 45 44 37 42 41 46 45 50 52 47 40 50 50 39 42 45 46
15 13 9 8 9 8 7 9 11 14 17 21 25 26 28 31 34 40 39 39 42 44 42 42 46 39 47 39 35 40 44 50 55 46 42 39 44 39 42 38 31 33 36
15 14 12 11 10 12 10 14 16 21 26 30 32 35 35 37 46 45 44 41 41 41 46 48 48 45 45 43 42 43 48 56 50 40 40 41 36 35 31 26 23 31 31
15 13 15 14 15 12 24 20 23 30 33 36 37 36 37 36 30 42 38 38 34 35 39 40 43 50 47 41 39 48 51 48 54 35 42 39 31 32 27 25 27 28 34
15 14 15 18 17 18 21 22 28 38 43 40 38 33 30 34 37 30 28 34 39 41 39 36 37 44 44 38 44 51 43 42 41 37 37 41 30 28 29 28 28 28 19
16 14 14 16 16 18 23 27 36 43 41 35 32 24 28 30 29 33 27 37 41 35 34 35 38 39 41 44 37 37 39 35 35 33 33 32 23 29 33 26 27 20 16
14 15 13 15 17 22 28 30 35 37 31 29 23 20 29 19 30 29 38 41 36 30 27 40 40 45 40 35 32 31 27 30 34 34 36 26 23 41 26 19 16 14 36
14 12 13 16 21 27 29 37 41 37 29 23 23 23 25 28 31 39 44 35 30 32 36 30 27 30 28 28 30 33 35 34 38 43 27 40 42 34 28 7 19 28 23
Wind_Direction_850mb
347 345 346 357 359 354 347 345 340 338 335 326 319 308 299 287 279 275 269 272 268 256 250 241 237 236 234 235 236 233 233 239 254 265 269 271 273 272 267 263 258 251 250
346 360 2 7 2 358 359 359 350 346 344 346 339 332 313 300 288 287 281 274 284 259 247 242 233 229 229 231 234 234 238 246 254 257 263 269 272 271 267 266 260 253 254
358 21 12 12 4 2 6 2 3 360 355 5 7 10 7 19 307 286 273 257 283 263 240 232 223 224 225 222 221 224 229 236 242 250 258 262 265 268 270 267 264 260 256
10 21 19 15 14 9 7 12 7 18 27 26 30 35 36 26 28 28 28 355 236 318 172 190 197 196 197 173 145 146 197 214 209 231 251 264 267 275 278 274 271 268 265
19 37 28 17 20 11 12 20 20 39 38 43 44 47 48 43 42 48 50 59 67 79 88 107 131 125 123 96 70 72 70 117 170 268 279 280 282 282 281 278 273 267 271
27 47 21 25 24 25 31 34 32 38 47 40 33 38 47 43 47 39 46 56 52 76 71 69 76 82 66 54 62 63 44 13 347 326 298 290 287 280 271 269 270 269 265
38 45 33 32 35 38 38 33 37 30 6 350 348 14 27 38 32 39 45 43 64 58 62 70 77 60 30 30 50 41 35 31 11 356 349 339 328 317 307 297 285 278 273
49 42 52 41 53 32 39 36 37 34 26 24 344 328 321 8 29 33 20 22 10 50 66 59 59 64 71 31 14 7 10 358 355 350 346 339 332 325 319 314 307 296 287
55 62 54 57 47 48 35 37 36 34 25 22 36 25 317 11 332 13 26 27 37 53 38 32 26 27 2 12 19 348 321 320 317 321 319 318 317 313 312 311 304 300 296
79 71 73 64 63 49 50 38 36 37 50 31 25 22 31 12 339 304 11 3 19 21 30 6 1 347 329 334 332 328 309 304 303 304 305 303 304 302 304 305 303 300 298
93 89 80 65 59 53 45 46 47 50 40 43 33 22 20 15 9 341 321 337 309 334 327 327 328 328 332 332 317 301 301 295 296 295 295 291 291 291 294 294 293 289 292
95 87 71 52 39 32 37 37 43 38 44 42 45 52 49 45 33 30 7 357 332 325 317 327 329 327 323 321 321 308 310 306 301 298 298 293 285 281 281 282 285 281 281
136 99 68 83 35 38 40 39 30 37 42 44 64 52 48 45 38 30 19 7 347 341 339 337 339 334 334 331 320 315 329 316 309 301 295 291 286 281 280 279 280 278 278
166 146 106 62 23 25 23 44 18 42 51 55 57 46 31 26 23 18 13 1 346 342 338 339 332 316 324 322 328 326 323 314 309 310 298 286 283 282 282 280 277 275 277
181 168 163 355 353 355 170 63 29 50 60 76 28 12 13 2 357 358 355 354 351 342 335 335 331 321 316 313 311 320 322 307 313 317 313 304 294 284 277 276 277 277 277
181 180 189 339 350 344 190 129 65 53 60 24 357 346 346 336 340 333 332 332 330 322 317 323 321 319 312 311 312 315 313 325 318 310 311 306 297 288 283 279 277 276 272
179 194 226 287 2 353 182 170 152 71 21 354 344 338 339 336 335 335 329 322 317 312 309 312 315 312 313 307 306 301 309 315 309 303 296 291 288 294 291 281 269 269 270
171 200 215 248 5 93 177 186 199 273 317 323 322 325 332 328 324 322 320 315 312 304 300 305 310 315 312 314 313 307 311 305 310 310 303 300 293 296 293 293 276 267 268
206 204 220 229 245 208 207 236 252 276 288 293 297 303 305 313 312 316 307 309 314 310 305 300 300 305 309 310 309 307 306 312 311 308 312 304 298 293 300 290 276 278 277
217 224 236 233 231 242 255 263 271 280 285 290 290 292 298 299 309 308 312 310 314 313 309 307 306 307 310 312 319 312 312 314 316 315 313 310 313 312 310 300 293 293 289
219 222 240 251 240 248 265 264 277 286 289 292 294 296 298 295 305 309 304 300 309 311 312 306 306 308 311 316 309 312 311 315 316 318 315 312 313 311 312 306 290 282 274
223 232 247 244 251 255 261 271 286 294 292 294 299 302 307 311 317 310 313 314 322 319 312 306 306 310 310 310 308 314 313 315 316 321 318 316 315 311 314 305 299 295 294
225 233 250 243 253 264 271 284 292 296 298 294 297 306 319 313 317 314 313 322 318 318 315 309 315 310 311 312 313 311 311 310 310 316 316 313 318 315 313 307 304 314 296
237 247 258 246 254 268 281 290 294 297 298 294 300 308 314 313 304 319 323 322 316 313 306 306 308 309 307 306 309 307 310 318 316 315 319 310 316 315 319 310 304 302 283
235 243 249 244 260 277 290 299 301 304 299 292 296 301 311 323 309 319 330 323 319 317 320 316 320 316 319 319 320 320 315 311 315 316 328 301 314 319 327 315 300 320 317
239 229 238 260 277 290 297 295 297 303 296 297 301 304 311 322 324 326 328 324 317 319 317 316 317 321 321 323 330 326 318 313 317 313 332 312 320 326 322 306 309 314 312